�N����,����,�~����,�C��,���x,�C��,����,���ϕ���,�ő�u�ԕ���,�ő厞����,���˗�,�I�_���x,�n�����x
"21/08/01","01:00",0.0,23.1,93.6,997.9,320.8,1.0,2.0,339.8,0.00,22.1,27.1
"21/08/01","02:00",0.0,23.1,94.1,997.9,309.9,0.3,1.9,323.8,0.00,22.1,26.8
"21/08/01","03:00",0.0,23.0,94.4,997.7,308.4,1.0,1.7,323.8,0.00,22.1,26.6
"21/08/01","04:00",0.0,23.0,94.6,997.2,330.2,0.8,1.6,323.7,0.00,22.1,26.5
"21/08/01","05:00",0.0,22.6,94.9,997.7,333.3,1.0,1.3,335.8,0.00,21.8,26.3
"21/08/01","06:00",0.2,22.9,95.2,998.2,307.5,1.0,1.7,319.9,0.00,22.1,26.2
"21/08/01","07:00",0.0,24.0,95.2,998.4,301.6,0.5,1.1,306.6,0.11,23.2,26.2
"21/08/01","08:00",0.0,26.2,94.1,997.7,173.3,0.6,1.7,332.2,0.67,25.2,26.1
"21/08/01","09:00",0.0,28.3,89.2,998.6,1.4,0.6,2.0,10.8,1.45,26.4,26.3
"21/08/01","10:00",0.0,29.9,74.1,998.4,241.5,1.0,2.7,191.1,1.75,24.8,26.8
"21/08/01","11:00",0.0,33.2,63.2,999.8,141.3,1.1,3.2,129.5,3.06,25.3,27.2
"21/08/01","12:00",0.0,34.6,52.7,998.9,71.7,1.0,3.2,226.4,3.29,23.6,27.8
"21/08/01","13:00",0.0,34.5,55.1,998.9,223.3,1.2,3.1,235.6,3.27,24.2,28.8
"21/08/01","14:00",0.0,33.7,55.6,997.9,116.7,1.1,5.0,233.0,2.41,23.6,29.3
"21/08/01","15:00",0.0,33.3,60.0,996.7,9.5,0.6,4.1,359.2,0.93,24.5,29.2
"21/08/01","16:00",0.0,30.4,69.6,995.3,317.9,1.7,4.2,327.7,0.48,24.3,29.4
"21/08/01","17:00",0.0,28.7,79.5,994.6,262.7,0.8,3.5,236.4,0.31,24.8,28.8
"21/08/01","18:00",0.0,29.7,79.4,995.8,273.6,0.6,2.8,251.4,0.34,25.8,29.0
"21/08/01","19:00",0.0,28.5,77.4,995.8,316.8,1.1,3.2,350.6,0.06,24.2,28.8
"21/08/01","20:00",0.0,27.6,77.6,997.2,333.9,1.5,3.5,319.3,0.00,23.4,28.5
"21/08/01","21:00",0.0,26.8,80.9,998.4,311.4,0.8,2.7,345.2,0.00,23.3,28.4
"21/08/01","22:00",0.0,26.2,84.7,998.6,330.9,1.8,3.6,346.2,0.00,23.5,28.1
"21/08/01","23:00",0.0,25.5,86.2,999.1,317.4,0.8,1.7,321.2,0.00,23.1,27.7
"21/08/01","24:00",0.0,24.9,87.9,999.3,332.9,0.7,1.1,348.3,0.00,22.8,27.4
"21/08/02","01:00",0.0,24.7,89.7,999.3,322.1,0.8,1.3,329.5,0.00,22.9,27.2
"21/08/02","02:00",0.0,24.5,90.6,999.8,303.6,0.6,1.4,322.5,0.00,22.9,27.5
"21/08/02","03:00",0.0,24.1,91.3,1000.0,310.4,0.7,2.1,345.8,0.00,22.6,27.1
"21/08/02","04:00",0.0,23.9,91.9,1000.5,324.8,0.8,1.4,326.2,0.00,22.5,26.8
"21/08/02","05:00",0.0,23.6,92.4,1001.0,302.2,0.5,1.4,359.6,0.00,22.3,26.7
"21/08/02","06:00",0.0,24.0,92.9,1001.5,291.7,0.7,1.4,330.1,0.01,22.8,26.5
"21/08/02","07:00",0.0,26.1,92.7,1001.5,333.6,0.6,1.4,340.5,0.20,24.9,26.3
"21/08/02","08:00",0.0,28.4,87.4,1001.2,154.2,0.6,1.8,227.6,0.86,26.1,26.6
"21/08/02","09:00",0.0,30.9,68.7,1002.6,172.7,1.1,3.7,199.3,1.73,24.5,26.7
"21/08/02","10:00",0.0,31.9,62.7,1002.4,188.7,1.6,5.1,212.1,2.48,23.9,27.2
"21/08/02","11:00",0.0,33.6,57.7,1002.4,159.2,1.7,5.1,224.4,3.08,24.1,27.7
"21/08/02","12:00",0.0,33.7,54.2,1001.9,147.3,1.1,5.6,208.5,2.79,23.2,28.2
"21/08/02","13:00",0.0,33.3,54.9,1001.7,168.2,1.3,5.4,223.2,2.26,23.0,28.7
"21/08/02","14:00",0.0,34.5,52.3,1002.2,175.2,2.1,4.3,214.7,2.87,23.3,29.1
"21/08/02","15:00",0.0,32.7,58.3,1000.8,41.5,1.2,5.9,15.6,0.88,23.5,29.2
"21/08/02","16:00",0.0,33.0,55.9,1000.3,74.2,0.8,3.2,135.3,0.60,23.1,29.1
"21/08/02","17:00",0.0,33.5,49.6,1000.8,95.8,1.0,2.9,41.1,0.76,21.6,29.2
"21/08/02","18:00",0.0,32.8,47.7,1000.8,110.7,1.1,4.0,64.5,0.36,20.3,29.1
"21/08/02","19:00",0.0,31.2,49.7,1000.5,97.1,1.0,3.4,120.8,0.07,19.5,28.8
"21/08/02","20:00",0.0,29.3,55.8,1000.3,7.8,0.8,2.7,103.7,0.00,19.6,28.5
"21/08/02","21:00",0.0,28.3,61.7,1002.2,54.4,0.6,2.8,88.4,0.00,20.3,28.0
"21/08/02","22:00",0.0,27.9,66.9,1002.4,352.2,0.3,1.9,138.2,0.00,21.2,27.9
"21/08/02","23:00",0.0,27.1,75.8,1002.4,348.3,0.8,1.8,358.1,0.00,22.5,27.7
"21/08/02","24:00",0.0,27.2,78.9,1002.4,293.2,0.6,1.7,342.6,0.00,23.3,27.4
"21/08/03","01:00",0.0,27.0,79.1,1002.6,248.6,0.3,1.4,332.9,0.00,23.1,27.6
"21/08/03","02:00",0.2,26.9,80.5,1002.2,328.3,0.3,2.4,151.7,0.00,23.3,27.3
"21/08/03","03:00",0.0,25.9,86.5,1002.2,316.0,0.8,2.2,333.1,0.00,23.5,27.2
"21/08/03","04:00",0.0,25.8,88.1,1001.5,298.7,1.0,3.4,315.0,0.00,23.7,27.0
"21/08/03","05:00",0.0,26.2,87.0,1001.5,359.3,1.1,2.9,101.3,0.00,23.9,27.2
"21/08/03","06:00",0.2,26.5,86.1,1001.9,218.0,1.0,2.4,222.6,0.00,24.0,26.8
"21/08/03","07:00",4.8,25.6,89.4,1002.2,329.7,0.3,1.7,354.3,0.00,23.8,26.9
"21/08/03","08:00",1.4,26.2,91.3,1002.4,276.8,0.6,2.1,240.7,0.00,24.7,26.8
"21/08/03","09:00",4.4,26.8,92.3,1002.9,90.8,0.8,3.2,76.7,0.04,25.5,26.6
"21/08/03","10:00",1.0,26.1,93.0,1004.1,156.4,1.3,4.9,127.9,0.12,24.9,26.6
"21/08/03","11:00",0.2,26.2,93.4,1005.2,160.7,1.2,3.4,165.1,0.16,25.1,26.7
"21/08/03","12:00",0.2,26.5,93.7,1005.2,133.6,1.0,3.6,146.4,0.28,25.4,27.0
"21/08/03","13:00",0.0,26.7,92.9,1005.0,188.6,1.1,2.9,207.5,0.62,25.5,27.0
"21/08/03","14:00",0.0,28.2,90.1,1005.0,205.5,1.0,2.4,206.9,1.06,26.5,26.9
"21/08/03","15:00",0.0,30.0,79.5,1005.7,322.1,1.2,3.1,230.1,1.56,26.1,27.2
"21/08/03","16:00",0.0,30.9,74.4,1005.5,5.9,0.8,3.4,337.2,1.25,25.9,27.5
"21/08/03","17:00",0.0,29.8,76.9,1005.2,295.6,0.5,2.0,202.2,0.42,25.3,27.8
"21/08/03","18:00",0.0,28.3,83.1,1005.0,170.2,1.0,2.7,162.0,0.08,25.2,27.7
"21/08/03","19:00",0.0,27.7,84.5,1005.5,285.1,1.0,2.8,233.7,0.02,24.9,27.7
"21/08/03","20:00",0.0,26.5,87.9,1006.2,333.9,0.5,2.0,5.6,0.00,24.4,27.6
"21/08/03","21:00",0.0,25.8,90.0,1006.9,314.5,0.3,1.9,346.4,0.00,24.1,27.6
"21/08/03","22:00",0.0,25.1,91.3,1007.4,335.1,0.6,1.2,307.0,0.00,23.6,27.3
"21/08/03","23:00",0.0,24.7,92.2,1007.4,304.5,0.6,1.4,263.3,0.00,23.4,27.1
"21/08/03","24:00",0.0,24.2,92.8,1007.8,333.3,0.6,1.4,336.3,0.00,23.0,27.0
"21/08/04","01:00",0.0,23.9,93.4,1008.1,317.2,0.7,1.9,321.2,0.00,22.8,26.7
"21/08/04","02:00",0.0,23.8,93.8,1007.6,318.3,1.0,1.3,312.4,0.00,22.8,26.5
"21/08/04","03:00",0.0,23.8,94.1,1008.1,325.9,0.8,1.7,342.1,0.00,22.8,26.3
"21/08/04","04:00",0.0,23.6,94.4,1007.8,330.4,0.8,1.3,273.7,0.00,22.7,26.3
"21/08/04","05:00",0.0,23.5,94.7,1007.8,300.1,0.7,1.4,327.5,0.00,22.6,26.1
"21/08/04","06:00",0.0,23.6,94.9,1008.1,324.5,0.7,1.3,339.9,0.00,22.8,26.0
"21/08/04","07:00",0.0,27.3,94.5,1006.9,27.2,0.2,1.1,335.8,0.14,26.4,26.0
"21/08/04","08:00",0.0,28.2,89.5,1008.1,86.0,0.6,1.3,131.8,0.92,26.3,26.2
"21/08/04","09:00",0.0,30.3,75.0,1006.7,148.6,0.5,1.9,34.6,1.05,25.4,26.2
"21/08/04","10:00",0.0,32.4,67.3,1008.1,158.5,1.0,2.5,139.3,2.26,25.6,26.7
"21/08/04","11:00",0.2,33.6,62.0,1008.6,127.3,1.0,3.7,202.6,2.79,25.3,27.2
"21/08/04","12:00",0.0,35.1,57.7,1007.4,26.7,1.0,2.7,95.9,2.32,25.5,27.8
"21/08/04","13:00",0.0,36.3,54.6,1007.4,149.3,1.0,3.1,143.0,3.76,25.7,28.5
"21/08/04","14:00",0.0,36.3,52.9,1006.2,135.7,1.1,2.7,145.7,2.96,25.2,29.2
"21/08/04","15:00",0.0,37.1,49.3,1005.7,186.0,1.0,4.4,14.0,3.25,24.7,29.6
"21/08/04","16:00",0.0,36.9,51.2,1005.0,297.4,0.8,3.1,197.7,1.89,25.2,29.7
"21/08/04","17:00",0.0,37.2,48.3,1004.5,21.6,0.7,2.6,226.8,1.76,24.5,29.7
"21/08/04","18:00",0.0,35.4,55.1,1003.8,115.1,0.6,2.7,58.0,0.67,25.0,30.0
"21/08/04","19:00",0.0,31.6,66.2,1002.4,327.0,0.5,2.6,351.3,0.03,24.6,29.9
"21/08/04","20:00",0.0,29.8,76.2,1001.5,350.7,1.0,3.2,347.6,0.00,25.2,29.7
"21/08/04","21:00",0.0,28.8,79.6,1002.6,340.2,0.8,1.9,12.7,0.00,25.0,29.3
"21/08/04","22:00",0.0,28.0,82.3,1003.6,345.1,1.0,1.9,344.0,0.00,24.7,29.2
"21/08/04","23:00",0.0,27.3,83.9,1003.8,321.5,0.6,1.7,345.3,0.00,24.4,28.7
"21/08/04","24:00",0.0,26.5,86.2,1003.6,322.3,0.7,2.0,333.7,0.00,24.0,28.6
"21/08/05","01:00",0.0,26.0,88.1,1003.6,305.2,0.8,1.6,341.9,0.00,23.9,28.2
"21/08/05","02:00",0.0,25.7,89.1,1003.6,290.5,0.7,1.6,336.9,0.00,23.8,28.1
"21/08/05","03:00",0.0,25.3,89.9,1003.8,298.4,0.6,1.4,330.7,0.00,23.6,27.9
"21/08/05","04:00",0.0,25.0,90.8,1003.1,327.0,0.8,1.9,344.8,0.00,23.4,27.7
"21/08/05","05:00",0.0,24.6,91.6,1003.4,344.4,0.8,2.7,343.0,0.00,23.2,27.4
"21/08/05","06:00",0.0,24.5,92.3,1003.4,297.6,0.8,2.0,243.6,0.00,23.2,27.2
"21/08/05","07:00",0.0,26.7,91.3,1003.6,355.9,0.6,2.5,326.9,0.17,25.2,27.0
"21/08/05","08:00",0.0,29.6,81.4,1003.1,188.2,0.7,1.6,352.8,0.90,26.1,27.5
"21/08/05","09:00",0.0,31.8,70.3,1004.1,148.5,0.7,1.9,59.4,1.79,25.8,27.3
"21/08/05","10:00",0.0,33.4,63.5,1004.5,132.4,0.7,2.7,195.1,2.54,25.6,27.7
"21/08/05","11:00",0.0,35.1,58.1,1004.3,151.8,1.1,2.6,124.9,3.08,25.7,28.5
"21/08/05","12:00",0.0,35.7,55.5,1003.1,182.7,1.8,4.3,218.5,3.41,25.4,29.1
"21/08/05","13:00",0.0,36.8,54.4,1002.6,146.8,1.7,5.5,229.4,3.42,26.1,29.7
"21/08/05","14:00",0.0,38.1,45.5,1002.4,109.3,1.1,4.0,160.8,3.29,24.3,30.3
"21/08/05","15:00",0.0,38.9,43.5,1001.7,102.7,1.0,3.5,111.3,2.55,24.3,30.4
"21/08/05","16:00",0.0,38.3,46.3,1000.8,100.5,1.3,3.5,215.4,2.17,24.8,30.6
"21/08/05","17:00",0.0,37.2,47.7,1000.8,56.6,1.1,3.9,94.5,0.84,24.3,30.7
"21/08/05","18:00",0.0,35.6,42.4,1000.5,108.3,1.0,3.1,81.1,0.50,20.9,30.7
"21/08/05","19:00",0.0,31.2,49.8,999.1,45.2,0.7,2.0,41.4,0.00,19.5,30.1
"21/08/05","20:00",0.0,28.5,65.2,998.4,296.4,0.7,3.1,156.3,0.00,21.4,29.9
"21/08/05","21:00",0.0,27.3,67.2,999.6,339.9,0.7,2.2,239.8,0.00,20.7,29.5
"21/08/05","22:00",0.0,26.2,72.0,1000.8,16.2,0.7,2.5,335.4,0.00,20.8,29.2
"21/08/05","23:00",0.0,25.0,76.8,1001.2,324.1,0.8,1.9,343.2,0.00,20.7,28.6
"21/08/05","24:00",0.0,24.3,76.8,1001.0,313.3,1.0,2.0,329.0,0.00,20.0,28.3
"21/08/06","01:00",0.0,23.9,79.4,1000.5,313.6,1.0,1.7,347.2,0.00,20.2,28.1
"21/08/06","02:00",0.0,23.7,81.0,1000.5,317.8,0.6,1.9,358.0,0.00,20.3,27.7
"21/08/06","03:00",0.0,23.8,83.2,1000.0,304.7,0.6,1.6,329.9,0.00,20.8,27.6
"21/08/06","04:00",0.0,23.9,84.3,1000.3,310.3,0.8,1.9,324.9,0.00,21.1,27.2
"21/08/06","05:00",0.0,23.9,86.0,1000.5,343.4,0.8,2.2,346.2,0.00,21.5,27.1
"21/08/06","06:00",0.0,24.3,87.2,1000.8,338.7,0.8,2.1,340.9,0.00,22.1,26.9
"21/08/06","07:00",0.0,26.0,86.2,1000.3,275.7,0.8,1.7,337.9,0.21,23.6,26.9
"21/08/06","08:00",0.0,28.3,79.8,999.6,135.6,0.6,2.0,127.2,0.48,24.5,26.9
"21/08/06","09:00",0.0,30.9,70.1,1000.3,110.5,1.1,2.8,102.1,1.29,24.9,27.2
"21/08/06","10:00",0.0,31.1,65.3,1001.5,114.6,1.1,3.2,143.1,1.92,23.9,27.5
"21/08/06","11:00",0.0,30.7,68.0,1001.0,97.2,1.1,3.4,144.9,1.05,24.2,27.5
"21/08/06","12:00",0.0,31.5,65.8,1000.5,115.3,1.2,3.5,61.7,1.21,24.4,27.8
"21/08/06","13:00",0.0,31.6,63.2,999.6,90.5,1.5,5.0,134.9,1.36,23.8,28.2
"21/08/06","14:00",0.0,33.1,60.3,999.6,128.9,2.0,4.9,119.7,1.55,24.4,28.3
"21/08/06","15:00",0.0,32.9,60.1,999.3,110.2,1.6,5.2,196.1,1.96,24.2,28.3
"21/08/06","16:00",0.0,32.5,59.3,998.9,129.6,2.1,5.1,139.1,1.60,23.6,28.5
"21/08/06","17:00",0.0,31.6,62.6,998.2,121.1,1.2,3.7,138.4,0.33,23.6,28.7
"21/08/06","18:00",0.0,30.6,66.9,997.4,105.4,1.2,3.9,110.2,0.30,23.8,28.5
"21/08/06","19:00",0.0,29.6,71.0,997.9,89.0,1.2,3.6,96.9,0.01,23.8,28.4
"21/08/06","20:00",0.0,28.6,73.9,997.9,125.9,0.7,4.8,133.8,0.00,23.5,28.2
"21/08/06","21:00",0.0,28.6,75.1,999.1,93.0,0.7,3.1,130.7,0.00,23.8,27.8
"21/08/06","22:00",0.0,28.1,77.2,999.3,149.5,0.8,3.9,156.5,0.00,23.8,28.0
"21/08/06","23:00",0.0,28.0,77.5,999.3,123.5,0.6,2.4,123.2,0.00,23.7,27.8
"21/08/06","24:00",0.0,28.2,77.2,999.3,109.6,0.8,2.6,104.8,0.00,23.9,27.4
"21/08/07","01:00",0.0,28.1,78.0,998.9,97.9,0.6,3.4,133.0,0.00,23.9,27.4
"21/08/07","02:00",0.0,27.8,79.4,998.4,101.8,0.7,2.7,123.0,0.00,23.9,27.4
"21/08/07","03:00",0.0,27.8,78.6,998.2,109.1,0.8,4.3,147.7,0.00,23.8,27.4
"21/08/07","04:00",0.0,27.4,80.4,998.4,87.0,0.6,2.8,36.1,0.00,23.8,27.2
"21/08/07","05:00",0.0,26.8,83.1,998.6,105.1,0.5,3.7,99.6,0.00,23.7,27.1
"21/08/07","06:00",0.0,26.8,83.6,998.9,142.5,0.8,3.2,140.8,0.00,23.8,26.9
"21/08/07","07:00",0.0,27.4,81.9,998.9,95.5,0.6,3.4,17.4,0.05,24.1,26.8
"21/08/07","08:00",0.0,28.9,79.1,998.4,109.1,1.0,2.5,98.0,0.34,25.0,26.9
"21/08/07","09:00",0.0,29.4,74.2,997.9,114.4,1.2,3.1,65.6,0.61,24.4,27.0
"21/08/07","10:00",0.0,29.8,74.3,998.2,122.5,0.6,3.3,60.3,0.52,24.8,27.2
"21/08/07","11:00",0.0,29.8,71.5,998.9,171.8,1.7,4.8,166.7,0.95,24.1,27.1
"21/08/07","12:00",0.0,32.1,64.2,999.1,140.0,2.1,6.3,154.8,1.25,24.5,27.6
"21/08/07","13:00",0.0,32.9,58.8,999.6,120.3,1.8,4.8,94.7,2.20,23.8,27.7
"21/08/07","14:00",0.0,32.5,62.4,998.9,140.5,1.2,5.5,132.3,1.04,24.4,27.7
"21/08/07","15:00",0.0,33.4,61.8,997.7,123.3,1.7,6.2,143.9,1.70,25.1,28.1
"21/08/07","16:00",0.0,33.9,55.0,997.9,134.6,2.6,7.5,135.8,2.16,23.6,28.4
"21/08/07","17:00",0.0,33.5,56.6,997.9,115.9,1.3,5.9,102.9,1.18,23.7,28.5
"21/08/07","18:00",0.0,32.6,58.4,998.2,113.5,1.2,4.9,159.1,0.72,23.4,28.6
"21/08/07","19:00",0.0,30.9,63.8,996.7,59.8,0.7,3.6,149.6,0.08,23.3,28.3
"21/08/07","20:00",0.0,29.3,69.4,996.0,352.7,0.7,3.1,49.8,0.00,23.2,28.1
"21/08/07","21:00",0.0,27.5,77.7,997.0,327.7,1.5,2.7,337.2,0.00,23.3,28.1
"21/08/07","22:00",0.0,27.2,78.2,997.2,337.5,1.6,3.4,339.8,0.00,23.1,27.8
"21/08/07","23:00",0.0,26.3,79.9,997.0,324.3,0.8,2.9,317.7,0.00,22.6,27.6
"21/08/07","24:00",0.0,25.6,83.9,997.0,306.0,0.7,2.6,331.5,0.00,22.7,27.4
"21/08/08","01:00",0.0,26.0,84.2,996.7,337.7,1.7,3.2,346.6,0.00,23.2,27.1
"21/08/08","02:00",0.0,26.0,83.7,995.8,358.1,1.3,3.7,350.5,0.00,23.1,27.1
"21/08/08","03:00",0.0,26.4,85.2,995.8,326.7,1.3,3.7,342.9,0.00,23.8,26.8
"21/08/08","04:00",0.0,25.9,87.2,996.0,341.8,2.0,2.9,344.6,0.00,23.6,26.8
"21/08/08","05:00",0.0,25.3,88.5,997.4,340.1,0.5,3.5,339.1,0.00,23.3,26.8
"21/08/08","06:00",0.0,25.2,89.4,997.4,302.3,0.3,1.9,345.4,0.00,23.4,26.5
"21/08/08","07:00",0.0,27.3,88.2,997.4,48.1,0.5,1.8,19.1,0.15,25.2,26.5
"21/08/08","08:00",0.0,30.7,73.1,997.9,67.2,0.7,1.9,26.2,0.85,25.4,26.7
"21/08/08","09:00",0.0,32.9,65.3,999.3,87.8,0.7,2.4,216.7,1.81,25.6,26.9
"21/08/08","10:00",0.0,33.0,62.1,999.1,340.5,1.5,4.7,342.2,2.31,24.8,27.5
"21/08/08","11:00",0.0,33.2,61.9,999.6,262.8,1.1,3.9,19.6,2.46,24.9,27.8
"21/08/08","12:00",0.0,33.6,57.6,998.2,8.1,1.5,4.3,352.2,1.82,24.1,28.4
"21/08/08","13:00",0.0,35.6,54.6,998.4,228.1,2.2,5.0,230.3,2.61,25.1,28.7
"21/08/08","14:00",0.0,37.1,48.8,998.4,248.8,1.6,3.9,226.3,2.98,24.6,29.2
"21/08/08","15:00",0.0,36.7,48.9,997.9,332.8,1.7,4.7,349.1,2.29,24.2,29.4
"21/08/08","16:00",0.0,35.4,54.4,996.5,335.1,1.2,2.8,332.5,1.03,24.8,29.3
"21/08/08","17:00",0.0,33.4,61.0,996.3,278.3,1.0,3.1,316.9,0.53,24.9,29.7
"21/08/08","18:00",0.0,30.5,69.8,995.8,330.5,1.8,5.1,317.3,0.24,24.4,29.5
"21/08/08","19:00",0.0,28.7,75.8,995.6,323.5,1.5,6.3,346.8,0.05,24.0,29.1
"21/08/08","20:00",0.0,27.2,81.5,996.3,323.6,1.7,4.3,340.5,0.00,23.8,28.7
"21/08/08","21:00",0.0,27.1,82.6,996.5,322.7,1.5,3.4,340.1,0.00,23.9,28.7
"21/08/08","22:00",0.0,27.1,81.6,997.0,310.2,1.0,3.6,341.7,0.00,23.7,28.4
"21/08/08","23:00",0.0,26.7,83.3,997.0,319.0,0.7,2.4,325.7,0.00,23.7,28.1
"21/08/08","24:00",0.0,26.1,85.3,996.0,274.6,0.6,1.8,336.7,0.00,23.5,28.0
"21/08/09","01:00",0.0,26.0,87.1,994.6,321.8,0.8,1.8,344.6,0.00,23.7,27.7
"21/08/09","02:00",0.0,26.8,87.4,993.0,157.5,0.8,1.9,349.1,0.00,24.6,27.5
"21/08/09","03:00",1.0,26.8,88.2,991.1,0.6,0.6,3.2,353.3,0.00,24.7,27.5
"21/08/09","04:00",8.2,26.2,89.4,990.1,181.9,0.8,2.8,155.1,0.00,24.4,27.2
"21/08/09","05:00",12.2,26.0,91.4,988.9,162.7,1.5,3.2,130.1,0.00,24.5,26.8
"21/08/09","06:00",0.2,26.0,92.4,987.8,347.9,0.2,2.7,141.1,0.00,24.7,26.8
"21/08/09","07:00",0.0,27.7,93.0,986.3,330.4,0.5,1.6,338.0,0.34,26.5,26.9
"21/08/09","08:00",0.0,28.0,90.4,985.6,151.4,1.2,3.4,130.0,0.54,26.3,26.9
"21/08/09","09:00",0.0,30.2,74.0,983.5,157.0,1.8,4.9,124.2,0.78,25.1,27.0
"21/08/09","10:00",0.0,30.1,71.4,982.6,211.6,1.3,9.0,116.8,0.11,24.4,27.2
"21/08/09","11:00",1.6,27.4,81.0,984.4,200.0,2.0,7.9,202.9,0.05,23.9,27.2
"21/08/09","12:00",1.2,27.1,85.3,984.2,202.4,4.0,8.5,194.8,0.62,24.5,27.0
"21/08/09","13:00",7.0,25.4,88.0,984.9,197.3,4.1,8.5,205.2,0.27,23.3,26.6
"21/08/09","14:00",2.2,25.5,87.0,985.4,195.5,3.0,13.4,226.7,0.84,23.2,26.5
"21/08/09","15:00",0.2,25.8,84.7,986.3,234.7,2.6,7.0,237.9,0.74,23.1,26.6
"21/08/09","16:00",0.0,27.3,76.4,987.3,260.8,2.5,12.6,231.4,0.60,22.8,26.7
"21/08/09","17:00",0.0,27.3,75.8,988.5,240.1,2.8,8.6,220.8,0.22,22.7,26.6
"21/08/09","18:00",0.0,27.0,76.2,989.6,250.8,1.5,9.1,219.6,0.00,22.5,26.4
"21/08/09","19:00",0.0,26.7,78.2,991.1,242.7,2.5,8.5,239.1,0.00,22.6,26.5
"21/08/09","20:00",0.0,26.9,75.5,992.5,255.2,3.1,8.6,223.6,0.00,22.2,26.4
"21/08/09","21:00",0.0,26.8,76.1,993.2,263.2,2.1,10.6,234.3,0.00,22.3,26.3
"21/08/09","22:00",0.0,26.5,76.6,994.4,275.5,2.1,5.4,239.9,0.00,22.1,26.1
"21/08/09","23:00",1.0,25.3,81.1,995.1,267.1,1.2,4.8,347.5,0.00,21.9,26.1
"21/08/09","24:00",1.0,24.3,87.9,995.8,289.3,1.3,3.2,248.9,0.00,22.2,26.1
"21/08/10","01:00",0.0,24.2,88.0,996.7,334.4,1.1,3.4,277.4,0.00,22.1,26.0
"21/08/10","02:00",0.0,24.0,88.3,997.7,313.3,1.5,4.2,352.4,0.00,22.0,25.9
"21/08/10","03:00",0.0,24.2,86.8,998.2,322.6,1.7,3.7,322.6,0.00,21.9,25.8
"21/08/10","04:00",0.4,23.6,89.1,998.6,341.4,1.0,2.8,332.1,0.00,21.7,25.7
"21/08/10","05:00",0.0,23.2,91.3,999.8,337.0,0.6,2.1,349.0,0.00,21.7,25.6
"21/08/10","06:00",0.2,23.2,92.5,999.8,262.7,0.7,2.1,352.3,0.00,22.0,25.5
"21/08/10","07:00",0.0,23.8,92.5,1000.5,324.0,1.1,3.2,347.4,0.07,22.6,25.6
"21/08/10","08:00",0.0,24.2,90.8,1001.5,330.6,1.1,4.2,349.7,0.29,22.6,25.6
"21/08/10","09:00",0.0,25.2,88.5,1001.5,325.0,2.3,4.9,347.0,0.74,23.2,25.6
"21/08/10","10:00",0.0,26.7,79.2,1001.5,314.0,1.6,6.0,353.6,1.32,22.8,25.8
"21/08/10","11:00",0.0,28.4,73.8,1001.5,283.7,1.1,4.5,242.1,1.21,23.3,25.9
"21/08/10","12:00",0.0,29.0,70.4,1001.7,350.1,2.0,6.6,342.9,1.86,23.1,26.2
"21/08/10","13:00",0.0,29.5,67.1,1002.4,346.2,2.5,6.6,350.5,2.45,22.8,26.6
"21/08/10","14:00",0.0,28.5,69.9,1002.4,307.5,1.8,5.6,342.0,1.33,22.5,26.7
"21/08/10","15:00",0.2,28.4,74.8,1001.7,344.6,2.6,5.6,312.6,1.79,23.5,27.1
"21/08/10","16:00",0.0,28.9,71.0,1001.7,351.8,2.1,6.4,351.5,1.48,23.2,27.2
"21/08/10","17:00",0.0,29.1,67.0,1001.7,335.9,2.0,5.9,343.5,0.95,22.4,27.4
"21/08/10","18:00",0.0,27.7,70.9,1001.9,340.9,1.2,5.9,339.9,0.44,22.0,27.3
"21/08/10","19:00",0.0,26.5,77.7,1002.9,356.1,0.8,2.0,352.4,0.05,22.3,27.3
"21/08/10","20:00",0.0,24.4,83.3,1004.1,354.4,0.7,3.2,341.0,0.00,21.4,27.0
"21/08/10","21:00",0.0,23.3,86.1,1005.2,296.7,0.8,2.1,341.7,0.00,20.9,26.9
"21/08/10","22:00",0.0,22.8,86.9,1005.7,297.4,0.8,2.8,337.6,0.00,20.5,26.5
"21/08/10","23:00",0.0,22.5,88.6,1006.2,324.9,1.3,2.1,312.9,0.00,20.6,26.6
"21/08/10","24:00",0.0,22.1,90.0,1006.7,330.0,1.2,2.2,324.4,0.00,20.4,26.4
"21/08/11","01:00",0.0,21.9,91.2,1007.1,327.9,1.1,2.0,335.9,0.00,20.4,25.9
"21/08/11","02:00",0.0,21.9,91.5,1006.7,339.5,1.3,2.1,345.4,0.00,20.5,25.9
"21/08/11","03:00",0.0,21.4,91.9,1006.9,343.6,0.8,2.4,338.4,0.00,20.1,25.7
"21/08/11","04:00",0.0,21.4,92.5,1007.1,340.4,1.3,2.6,337.9,0.00,20.2,25.5
"21/08/11","05:00",0.0,21.5,92.8,1007.1,327.5,2.5,3.9,343.6,0.00,20.3,25.5
"21/08/11","06:00",0.0,21.9,92.5,1008.6,329.6,2.6,4.5,340.0,0.00,20.7,25.0
"21/08/11","07:00",0.0,22.8,91.6,1009.0,336.0,1.7,4.3,337.5,0.19,21.4,25.2
"21/08/11","08:00",0.0,25.3,84.3,1008.3,194.0,0.5,3.3,348.6,0.68,22.5,24.9
"21/08/11","09:00",0.0,27.9,70.2,1008.3,28.4,0.7,2.2,229.6,1.48,22.0,25.2
"21/08/11","10:00",0.0,28.1,65.9,1008.6,330.3,0.6,1.7,345.4,1.52,21.2,25.4
"21/08/11","11:00",0.0,29.7,65.4,1008.8,121.6,0.8,2.4,346.3,1.75,22.6,25.8
"21/08/11","12:00",0.0,30.3,65.1,1007.8,351.2,0.8,2.4,346.5,1.63,23.1,26.2
"21/08/11","13:00",0.0,29.7,67.1,1007.1,282.0,0.3,3.2,353.3,1.25,23.0,26.6
"21/08/11","14:00",0.0,29.1,68.5,1006.7,259.5,0.7,2.5,350.2,0.97,22.8,26.8
"21/08/11","15:00",0.0,29.1,69.4,1005.7,277.2,0.5,2.6,347.3,0.68,23.0,26.8
"21/08/11","16:00",0.0,29.3,68.1,1006.2,293.0,0.5,2.4,352.9,0.77,22.8,27.0
"21/08/11","17:00",0.0,29.6,67.2,1006.2,319.2,0.8,2.5,341.5,0.67,22.9,27.0
"21/08/11","18:00",0.0,28.6,73.5,1004.5,329.4,1.1,2.5,351.1,0.23,23.4,27.0
"21/08/11","19:00",0.0,27.5,77.3,1006.2,292.0,1.3,3.6,237.3,0.01,23.2,27.1
"21/08/11","20:00",0.0,26.6,80.0,1006.4,325.6,0.8,2.4,318.8,0.00,22.9,26.8
"21/08/11","21:00",0.0,26.2,76.4,1007.6,338.5,1.2,2.5,342.3,0.00,21.8,26.8
"21/08/11","22:00",0.0,25.8,76.7,1007.1,334.8,1.5,4.1,352.8,0.00,21.4,26.6
"21/08/11","23:00",0.0,25.7,77.2,1007.4,337.1,1.0,2.8,353.2,0.00,21.4,26.7
"21/08/11","24:00",0.0,25.0,80.9,1007.4,335.0,1.5,2.4,340.6,0.00,21.5,26.6
"21/08/12","01:00",0.0,24.5,82.9,1006.7,322.6,0.8,2.7,333.4,0.00,21.4,26.3
"21/08/12","02:00",0.0,24.3,85.2,1007.4,340.8,1.0,1.7,339.5,0.00,21.7,25.9
"21/08/12","03:00",0.0,23.7,88.0,1007.6,319.8,0.8,1.9,334.0,0.00,21.6,26.0
"21/08/12","04:00",0.0,23.9,88.7,1007.8,322.0,0.7,1.4,337.1,0.00,22.0,25.8
"21/08/12","05:00",3.2,23.6,89.3,1008.1,236.8,0.1,1.0,342.5,0.00,21.8,25.8
"21/08/12","06:00",0.8,23.4,90.7,1008.3,302.0,0.6,1.2,341.7,0.00,21.8,25.9
"21/08/12","07:00",0.0,23.6,92.0,1008.3,316.1,0.6,2.0,345.1,0.00,22.3,25.5
"21/08/12","08:00",0.0,24.4,92.9,1008.3,318.0,0.7,2.0,341.3,0.20,23.2,25.7
"21/08/12","09:00",0.0,25.2,92.9,1007.8,310.6,1.0,1.9,319.0,0.44,24.0,25.5
"21/08/12","10:00",1.0,24.7,92.7,1007.8,48.0,0.2,2.1,341.6,0.29,23.5,25.7
"21/08/12","11:00",4.6,24.7,93.0,1007.1,213.7,0.1,1.3,343.6,0.12,23.5,26.1
"21/08/12","12:00",9.2,24.9,93.6,1007.1,148.4,0.6,2.2,201.1,0.27,23.8,25.9
"21/08/12","13:00",0.2,24.9,93.3,1006.7,158.0,0.5,2.1,161.7,0.52,23.8,26.0
"21/08/12","14:00",1.0,24.1,93.7,1006.2,163.4,1.0,4.0,222.5,0.22,23.1,25.7
"21/08/12","15:00",0.4,24.3,93.7,1006.0,153.5,0.2,2.0,136.7,0.26,23.3,25.9
"21/08/12","16:00",2.6,24.1,94.1,1006.2,147.1,0.3,1.9,340.1,0.13,23.1,25.9
"21/08/12","17:00",0.0,24.5,94.0,1006.0,4.7,0.2,1.3,340.9,0.28,23.5,25.8
"21/08/12","18:00",0.0,24.6,94.1,1006.2,307.6,0.3,1.9,336.0,0.03,23.6,26.0
"21/08/12","19:00",0.0,24.5,94.3,1006.4,6.3,0.5,1.1,315.2,0.00,23.6,25.7
"21/08/12","20:00",0.0,23.7,94.7,1006.7,327.3,0.5,1.6,229.6,0.00,22.8,25.8
"21/08/12","21:00",0.0,23.3,95.0,1007.4,322.6,0.8,1.4,337.0,0.00,22.5,25.7
"21/08/12","22:00",0.0,23.0,95.3,1007.4,309.0,1.0,2.5,341.9,0.00,22.2,25.7
"21/08/12","23:00",0.0,22.9,95.5,1007.4,332.9,0.8,1.8,301.2,0.00,22.2,25.7
"21/08/12","24:00",0.0,22.9,95.7,1006.7,337.9,1.0,1.8,334.9,0.00,22.2,25.5
"21/08/13","01:00",0.6,22.8,95.8,1006.4,315.5,0.7,1.6,328.3,0.00,22.1,25.4
"21/08/13","02:00",0.0,22.9,95.9,1005.7,331.5,0.3,1.2,350.1,0.00,22.3,25.6
"21/08/13","03:00",0.2,23.1,96.0,1005.7,341.2,0.7,1.2,4.6,0.00,22.5,25.1
"21/08/13","04:00",1.6,23.1,96.1,1005.2,211.5,0.6,1.3,237.5,0.00,22.5,25.3
"21/08/13","05:00",6.8,22.8,96.3,1004.5,199.9,0.8,2.1,196.5,0.00,22.2,25.1
"21/08/13","06:00",1.0,22.9,96.4,1004.8,328.5,0.2,1.4,357.0,0.00,22.3,25.3
"21/08/13","07:00",0.2,23.2,96.4,1004.3,294.2,0.5,1.0,326.8,0.00,22.6,25.1
"21/08/13","08:00",0.0,23.4,96.4,1004.1,263.0,0.3,1.0,19.0,0.04,22.8,24.9
"21/08/13","09:00",2.2,23.5,96.5,1003.8,358.9,0.2,1.4,238.0,0.02,23.0,25.1
"21/08/13","10:00",0.6,23.8,96.6,1003.8,309.3,0.3,1.1,359.9,0.14,23.3,25.0
"21/08/13","11:00",0.8,24.2,96.6,1003.4,264.3,0.3,1.0,325.6,0.21,23.7,25.1
"21/08/13","12:00",0.6,25.0,96.4,1002.2,312.8,0.6,1.6,345.1,0.65,24.4,25.1
"21/08/13","13:00",0.0,24.9,96.2,1001.2,326.3,0.8,1.8,341.4,0.42,24.3,25.4
"21/08/13","14:00",6.8,24.2,96.1,1001.0,78.8,0.5,2.2,185.8,0.10,23.6,25.6
"21/08/13","15:00",10.4,23.3,96.4,1000.3,153.1,0.3,2.6,91.7,0.10,22.7,25.2
"21/08/13","16:00",6.6,23.4,96.4,999.6,169.9,1.5,3.3,150.4,0.00,22.8,25.1
"21/08/13","17:00",18.2,23.9,96.4,999.8,115.0,0.3,2.9,140.0,0.00,23.3,25.3
"21/08/13","18:00",5.0,24.1,96.3,1000.3,295.7,1.2,3.3,234.5,0.01,23.5,25.2
"21/08/13","19:00",1.0,24.0,96.3,1001.0,316.9,1.1,2.7,251.2,0.00,23.4,25.2
"21/08/13","20:00",2.2,24.1,96.3,1001.2,324.1,1.7,4.2,342.8,0.00,23.5,25.2
"21/08/13","21:00",8.0,24.1,96.3,1001.5,322.0,1.1,3.5,354.9,0.00,23.5,25.0
"21/08/13","22:00",0.2,24.0,96.3,1001.5,95.0,0.3,2.0,242.7,0.00,23.4,24.8
"21/08/13","23:00",1.0,23.9,96.3,1001.5,26.2,0.3,1.4,347.7,0.00,23.3,25.1
"21/08/13","24:00",0.4,23.8,96.4,1001.5,242.8,0.3,1.3,344.5,0.00,23.2,25.0
"21/08/14","01:00",0.2,23.9,96.4,1001.5,327.2,0.5,1.7,222.8,0.00,23.3,24.7
"21/08/14","02:00",0.6,23.9,96.5,1000.5,26.4,0.6,1.6,22.6,0.00,23.3,24.8
"21/08/14","03:00",7.4,24.2,96.5,1000.3,124.1,0.5,2.1,192.7,0.00,23.6,24.8
"21/08/14","04:00",1.6,24.3,96.5,999.8,190.2,0.3,4.9,208.9,0.00,23.7,24.8
"21/08/14","05:00",4.6,24.0,96.7,999.8,226.5,0.6,3.2,198.6,0.00,23.5,24.7